Regional Weather Roundup
Issued by NWS

Home | Current Version | Previous Version | Graphics & Text | Print | Product List | Glossary Off
Versions: 1 2 3 4 5 6 7 8 9 10 11 12 13 14 15 16 17 18 19 20 21 22 23 24 25 26 27

000
ASUS45 KBOU 082107
RWRCO

WEATHER ROUNDUP FOR COLORADO
NATIONAL WEATHER SERVICE DENVER/BOULDER CO
200 PM MST THU DEC 08 2016

NOTE: "FAIR" INDICATES FEW OR NO CLOUDS BELOW 12000 FEET WITH NO
SIGNIFICANT WEATHER AND/OR OBSTRUCTIONS TO VISIBILITY.

COZ001>005-013-030-031-082200-
...NORTHWEST COLORADO...

CITY           SKY/WX    TMP DP  RH WIND       PRES   REMARKS
CRAIG          CLOUDY    21   3  45 E8        30.21F WCI  11
HAYDEN         PTSUNNY   16   0  48 E7        30.20F WCI   6
MEEKER           N/A     21  10  62 SE3       30.19F
MOUNT WERNER   NOT AVBL
STEAMBOAT SPGS CLOUDY    12  -1  55 CALM      30.20S
WALDEN           N/A      5  -4  66 CALM      30.13S
$$

COZ006>008-011-082200-
...WEST CENTRAL VALLEYS...

CITY           SKY/WX    TMP DP  RH WIND       PRES   REMARKS
GRAND JUNCTION CLOUDY    29   6  38 CALM      30.28F
MONTROSE       CLOUDY    28   7  41 W3        30.28F
EAGLE          PTSUNNY   21   1  42 CALM      30.25F
RIFLE          CLOUDY    23   5  46 CALM      30.27F
DELTA          NOT AVBL
NUCLA          CLOUDY    32   1  27 CALM      30.30S
$$

COZ017>023-064>068-082200-
...SOUTHWEST COLORADO...

CITY           SKY/WX    TMP DP  RH WIND       PRES   REMARKS
DURANGO        CLOUDY    34   2  25 CALM      30.27F
CORTEZ         CLOUDY    38  10  31 CALM      30.28S
PAGOSA SPRINGS FAIR      32   3  29 S7        30.27S WCI  25
TELLURIDE      CLOUDY    31   0  26 CALM      30.22S
WOLF CREEK PAS FAIR      12   0  57 SW20G26   30.21S WCI  -6
$$

COZ009-010-012-014-032>034-037-058>063-082200-
...CENTRAL COLORADO...

CITY           SKY/WX    TMP DP  RH WIND       PRES   REMARKS
ASPEN          NOT AVBL
BUENA VISTA    CLOUDY    32  -2  23 N14G26    30.10F WCI  22
COPPER MTN     PTSUNNY   14   5  67 MISG      30.04F HAZE
BERTHOUD PASS  CLOUDY     1  -9  60 W18G28    29.97F WCI -19
COTTONWOOD PAS FAIR      27  -2  28 W15G31    30.07F WCI  15
GUNNISON       FAIR      18   1  47 CALM      30.26F
KREMMLING      CLOUDY    12   0  57 CALM      30.22F
LEADVILLE      CLOUDY    20   6  55 N7        30.05F WCI  11
MONARCH PASS   CLOUDY     9  -4  56 W36       30.20R WCI -16
SALIDA         CLOUDY    33   0  23 SW9       30.22R WCI  26
SUNLIGHT       LGT SNOW  10   7  85 SW18G26   30.13S WCI  -8
WILKERSON PASS FAIR      14   1  57 SW17G29   30.05S WCI  -3
$$

COZ069>075-082200-
...SAN LUIS VALLEY/SANGRE DE CRISTO MOUNTAINS...

CITY           SKY/WX    TMP DP  RH WIND       PRES   REMARKS
ALAMOSA        FAIR      26   8  46 SW5       30.21F WCI  20
LA VETA PASS   FAIR      23  10  58 NE24G35   30.10S WCI   7
SAGUACHE       CLOUDY    28   0  29 S7        30.22S WCI  21
$$

COZ035-036-038>040-082200-
...NORTHERN COLORADO FRONT RANGE...

CITY           SKY/WX    TMP DP  RH WIND       PRES   REMARKS
DENVER INTL AP FAIR      16   8  71 NE8       30.27F WCI   5
DMNS CITY PARK   N/A     16   6  64 NE5G10    30.27F WCI   8
AURORA         MOSUNNY   17   8  67 NE7       30.25F WCI   8
FRONT RANGE AP MOSUNNY   18  10  73 N6        30.28F WCI   9
ERIE MUNI ARPT FAIR      12   7  77 CALM      30.31F
BOULDER MUN AP FAIR      12   5  73 NE5       30.29F WCI   4
CENTENNIAL     FAIR      19   7  59 NE6       30.23F WCI  11
BROOMFIELD     MOSUNNY   14   7  73 N6        30.27F WCI   5
FORT COLLINS   FAIR      10   3  72 SE6       30.33F WCI   1
LONGMONT       FAIR      19   5  56 CALM      30.34F
$$

COZ041-046-047-076>085-087-088-082200-
...PIKES PEAK/PALMER DIVIDE AND SOUTHERN FOOTHILLS...

CITY           SKY/WX    TMP DP  RH WIND       PRES   REMARKS
COLO. SPRINGS  LGT SNOW  13   7  77 SE14      30.28F VSB 3/4 WCI  -2
A. F. ACADEMY  CLOUDY    10   3  72 S10       30.24S WCI  -3
SCHRIEVER AFB  NOT AVBL
ELLICOTT       CLOUDY   N/A N/A N/A SW14        N/A
FALCON         LGT SNOW  11   5  77 S14       30.24S WCI  -5
FORT CARSON    LGT SNOW  14   7  73 S9        30.29F WCI   2
LIMON          FAIR      18   6  59 S15G22    30.33F WCI   4
MONUMENT HILL  FAIR      12   3  67 S16G23    30.20S WCI  -4
TRINIDAD       FAIR      23   6  48 SE5       30.28F WCI  17
$$

COZ042>045-048>051-090-091-082200-
...NORTHEAST COLORADO...

CITY           SKY/WX    TMP DP  RH WIND       PRES   REMARKS
GREELEY ARPT   FAIR      16   3  56 SE5       30.36F WCI   9
AKRON          FAIR      14   3  61 SE13      30.38F WCI   0
BURLINGTON     FAIR      20   3  48 CALM      30.44F
WRAY           NOT AVBL
STERLING       FAIR      14   3  62 CALM      30.43F
HOLYOKE        FAIR      21   3  45 CALM      30.47F
FORT MORGAN    FAIR      13   2  62 E8        30.38F WCI   1
$$

COZ086-089-092>099-082200-
...SOUTHEAST COLORADO...

CITY           SKY/WX    TMP DP  RH WIND       PRES   REMARKS
PUEBLO         CLOUDY    21   8  57 SE9       30.37F WCI  11
LA JUNTA       FAIR      26   2  35 E10       30.40F WCI  16
LAMAR          FAIR      25   0  33 E12       30.46F WCI  14
SPRINGFIELD      N/A     21   0  39 S12       30.41  WCI   9
$$




USA.gov is the U.S. government's official web portal to all federal, state and local government web resources and services.